Date,TemperatureHighF,TemperatureAvgF,TemperatureLowF,DewpointHighF,DewpointAvgF,DewpointLowF,HumidityHigh,HumidityAvg,HumidityLow,PressureMaxIn,PressureMinIn,WindSpeedMaxMPH,WindSpeedAvgMPH,GustSpeedMaxMPH,PrecipitationSumIn
2013-10-1,48.9,46.5,45.1,48.6,46.2,44.6,100,99,94,29.86,29.39,5,0,0,0.24
2013-10-2,52.9,46.7,41.4,50.6,46.2,41.1,100,98,88,30.05,29.86,2,0,0,0.00
2013-10-3,48.1,45.6,41.3,46.1,44.4,41.0,100,96,89,30.02,29.63,14,1,14,0.36
2013-10-4,48.7,46.4,43.5,47.9,45.7,43.1,100,97,93,29.69,29.58,15,1,15,0.64
2013-10-5,50.2,45.5,40.2,49.1,45.1,39.9,100,98,92,29.92,29.69,5,0,0,0.19
2013-10-6,46.6,39.8,34.1,45.6,39.4,34.1,100,98,92,29.79,29.46,2,0,0,0.01
2013-10-7,47.9,40.9,34.7,46.3,40.4,34.7,100,98,89,29.93,29.47,1,0,0,0.03
2013-10-8,45.9,40.8,33.7,45.1,40.4,33.7,100,98,96,30.01,29.46,15,1,16,0.23
2013-10-9,47.3,44.5,43.0,47.3,44.1,41.8,100,98,95,29.66,29.15,17,1,19,0.71
2013-10-10,48.3,44.5,42.9,47.4,44.2,42.6,100,99,95,29.90,29.66,5,0,0,0.28
2013-10-11,46.5,44.0,42.3,46.2,43.8,42.3,100,100,96,30.11,29.90,5,0,0,0.30
2013-10-12,47.9,44.4,42.0,46.9,44.1,42.0,100,99,94,30.15,30.10,3,0,0,0.04
2013-10-13,48.9,45.8,42.9,48.6,44.9,42.6,99,96,90,30.12,29.97,17,1,23,0.67
2013-10-14,49.5,46.8,43.2,49.4,46.7,43.2,100,100,98,30.25,30.00,9,0,0,1.03
2013-10-15,47.2,44.2,41.4,46.7,44.1,41.4,100,100,97,30.34,30.25,2,0,0,0.04
2013-10-16,48.5,45.3,42.4,48.0,45.2,42.4,100,99,95,30.33,30.24,3,0,0,0.05
2013-10-17,44.9,42.2,39.4,43.4,41.8,39.3,100,98,93,30.25,30.19,2,0,0,0.00
2013-10-18,45.3,43.2,41.5,44.8,42.8,41.2,100,99,96,30.24,30.09,9,0,0,0.23
2013-10-19,49.9,47.9,45.1,49.6,47.7,44.6,100,99,98,30.10,29.96,12,1,12,0.61
2013-10-20,50.9,49.4,45.9,50.8,49.4,45.8,100,100,99,30.03,29.91,6,0,0,1.25
2013-10-21,45.8,41.3,34.8,45.7,41.3,34.8,100,100,99,30.14,30.02,2,0,0,0.01
2013-10-22,42.1,38.6,33.9,41.3,38.4,33.9,100,99,95,30.16,29.96,2,0,0,0.13
2013-10-23,51.0,44.3,40.0,50.3,44.2,40.0,100,100,97,29.96,29.63,14,0,14,0.90
2013-10-24,48.2,45.7,41.5,48.0,45.6,41.5,100,100,97,30.05,29.82,2,0,0,0.08
2013-10-25,48.1,46.8,44.3,48.1,46.8,44.3,100,100,100,30.07,30.00,8,0,0,0.92
2013-10-26,48.1,44.6,36.9,47.9,44.5,36.8,100,100,95,30.49,29.98,8,0,0,0.46
2013-10-27,43.2,39.0,34.8,43.1,39.0,34.8,100,100,99,30.50,30.31,1,0,0,0.00
2013-10-28,46.7,42.9,40.7,43.7,41.8,38.7,100,96,75,30.32,29.75,7,0,0,0.03
2013-10-29,45.9,43.5,42.1,45.7,43.0,41.1,100,98,93,29.79,29.70,12,0,14,0.19
2013-10-30,45.0,44.2,43.0,45.0,43.9,42.6,100,99,96,29.70,29.34,8,0,0,0.46
2013-10-31,45.0,43.1,39.9,45.0,43.1,39.9,100,100,99,29.84,29.46,5,0,0,0.19